[[{"header":{"parameterUnit":"m.s-1","parameterCategory":1,"la1":30.2991,"la2":30.254,"lo1":-89.0895,"lo2":-89.0444,"dy":0.0017,"dx":0.0017,"nx":28,"ny":28,"refTime":"2025-03-10T03:00:00:Z","depth":0,"parameterNumber":2,"parameterNumberName":"U-component_of_WINDS"},"data":[0,0,0,0,0,0,0,0,0,0,0,0,0,0,0,0,0,0,0,0,0,0,0,0,0,0,0,0,0,0,0,0,0,0,0,0,0,0,0,0,0,0,0,0,0,0,0,0,0,0,0,0,0,0,0,0,0,0,5.5681,5.5679,0,5.5507,5.5505,5.5503,5.5218,5.5213,5.5208,5.5203,5.5019,5.5019,5.5019,0,0,0,0,0,0,0,0,0,0,0,0,0,5.5769,5.5769,5.5681,5.5679,5.5677,5.5507,5.5505,5.5502,5.5219,5.5213,5.5206,5.52,5.5019,5.5019,5.5019,0,0,0,0,0,0,0,0,0,0,0,0,0,5.5677,5.5769,5.5682,5.5515,5.5498,5.5508,5.5505,5.5502,5.522,5.5212,5.5205,5.5197,5.5019,5.5019,5.5019,5.5175,0,0,5.5019,5.5019,0,0,0,0,0,0,0,0,5.5682,5.5674,5.5542,5.5527,5.5508,5.5376,5.5468,5.5392,5.5222,5.5326,5.5203,5.5193,5.5144,5.5133,5.5117,5.5167,5.5159,5.5019,5.5019,5.5019,5.5019,0,0,0,0,0,0,0,5.5689,5.568,5.5612,5.554,5.552,5.5449,5.5428,5.5453,5.5281,5.5316,5.5295,5.5279,5.5133,5.5118,5.5111,5.5156,5.5019,5.5019,5.5019,5.5019,5.5333,5.5341,0,0,0,0,0,0,5.572,5.5687,5.5617,5.5607,5.5578,5.5454,5.543,5.5426,5.528,5.525,5.5286,5.5266,5.5122,5.5111,5.5104,5.5281,5.5019,5.5019,5.5019,5.5325,5.5335,5.5344,0,0,0,0,0,0,5.5723,5.5717,5.5624,5.5641,5.5624,5.5461,5.546,5.5427,5.5412,5.5257,5.5224,5.5302,5.5116,5.5104,5.5162,5.5271,5.5019,5.5019,5.5315,5.5328,5.534,5.5637,0,0,0,0,0,0,5.5727,5.572,5.5776,5.5645,5.5624,5.5686,5.5466,5.5429,5.5413,5.5386,5.5263,5.5235,5.5108,5.5164,5.5162,5.5266,5.5019,5.5304,5.5321,5.5336,5.5616,5.5658,5.5693,0,0,0,0,0,5.5731,5.5864,5.5781,5.5774,5.5692,5.5693,5.5681,5.5534,5.5423,5.548,5.5382,5.5239,5.526,5.5172,5.5168,5.5274,5.5297,5.5316,5.5334,5.5599,5.565,5.5692,0,0,0,0,0,0,5.6009,5.5843,5.5749,5.5843,5.5785,5.5645,5.5711,5.5591,5.5561,5.5537,5.5354,5.5329,5.5412,5.5348,5.5253,5.5421,5.5257,5.5276,5.546,5.5506,5.5544,5.5557,5.5019,0,0,0,0,0,5.6082,5.6097,5.5951,5.6049,5.6025,5.5875,5.5869,5.5762,5.5693,5.5666,5.5571,5.5509,5.5502,5.55,5.5484,5.5607,5.5578,5.5678,5.5717,5.5749,5.5768,5.5834,5.5878,5.5406,5.5406,5.5406,0,0,5.6231,5.6143,5.6162,5.6103,5.6044,5.6065,5.5855,5.5883,5.5898,5.5669,5.572,5.565,5.5569,5.5662,5.5698,5.5611,5.5893,5.5773,5.5801,5.58,5.5858,5.5903,5.5943,5.5419,5.5416,5.5414,0,0,5.6514,5.6448,5.6524,5.6473,5.639,5.629,5.631,5.619,5.6136,5.6185,5.6016,5.6031,5.6021,5.5972,5.5946,5.6223,5.6093,5.6223,5.6423,5.649,5.6527,5.6559,5.6661,5.67,5.6242,5.6243,5.6243,0,5.6709,5.6733,5.6578,5.6621,5.6601,5.6401,5.6479,5.6436,5.6352,5.6344,5.6249,5.6238,5.6169,5.6251,5.632,5.6304,5.6323,5.6234,5.6535,5.6565,5.6593,5.6688,5.6727,5.6259,5.6257,5.6255,5.6254,0,5.698,5.7001,5.7073,5.7002,5.699,5.705,5.6906,5.6914,5.6811,5.6723,5.6779,5.6691,5.6658,5.6669,5.6565,5.6739,5.6689,5.6568,5.6398,5.6657,5.6744,5.6779,5.6283,5.6277,5.6272,5.6268,0,0,5.7426,5.7275,5.7304,5.7273,5.7171,5.7184,5.7238,5.7208,5.722,5.7172,5.7214,5.7216,5.7105,5.7077,5.6967,5.7026,5.7257,5.6897,5.6893,5.697,5.7449,5.7542,5.7586,5.7172,5.7178,5.7183,5.7456,0,5.7689,5.7772,5.7638,5.7753,5.7773,5.7588,5.7635,5.7579,5.7501,5.7507,5.7419,5.7425,5.7277,5.726,5.731,5.7219,5.7351,5.7197,5.7211,5.7213,5.7237,5.763,5.7726,5.7988,5.7489,5.7494,5.7498,0,5.8004,5.7976,5.8095,5.7993,5.7996,5.8041,5.8008,5.8015,5.7951,5.789,5.7865,5.7738,5.7786,5.7626,5.7692,5.7591,5.7589,5.7547,5.7553,5.7548,5.7371,5.7638,5.8067,5.8108,5.755,5.7545,5.7542,0,5.8322,5.8314,5.8385,5.8363,5.8245,5.8283,5.8235,5.8162,5.8156,5.8128,5.8122,5.8099,5.8087,5.8073,5.7946,5.784,5.803,5.7856,5.7982,5.7986,5.8028,5.8027,5.8465,5.8028,5.8027,5.8026,5.8026,0,5.8629,5.8709,5.8527,5.8571,5.8658,5.8505,5.8595,5.8529,5.8469,5.8498,5.8336,5.8367,5.8197,5.8211,5.8112,5.8185,5.8179,5.8133,5.8106,5.8148,5.8155,5.8143,5.8122,5.8037,5.8034,5.8032,5.8031,0,5.8996,5.8877,5.8944,5.883,5.8804,5.8873,5.8775,5.8813,5.8728,5.8768,5.8769,5.8635,5.8644,5.8516,5.8498,5.8432,5.8551,5.8491,5.8574,5.8555,5.8689,5.868,5.9135,5.9189,5.8718,5.8723,5.8727,0,5.92,5.9258,5.9153,5.9163,5.9125,5.9141,5.9136,5.8991,5.8992,5.8929,5.8976,5.8972,5.8961,5.8986,5.8887,5.8875,5.8814,5.8976,5.8811,5.8854,5.882,5.8819,5.8826,5.901,5.9015,5.902,5.9024,0,5.9575,5.9516,5.9514,5.9497,5.9496,5.9473,5.944,5.9458,5.93,5.9311,5.932,5.9313,5.93,5.93,5.9272,5.9223,5.91,5.9078,5.9107,5.915,5.9197,5.9177,5.867,5.9067,5.9063,5.9059,5.9057,5.9055,5.9867,5.9913,5.9849,5.9855,5.9817,5.9793,5.9824,5.9746,5.9752,5.9731,5.9646,5.9672,5.9613,5.9562,5.9527,5.9547,5.9468,5.9509,5.9519,5.9532,5.9559,5.9196,5.9541,5.9539,5.9538,5.9537,5.9536,0,6.0236,6.0188,6.0196,6.0158,6.0165,6.0052,6.0012,6.0026,6.0051,6.0007,6.0003,6.0018,6.002,5.9926,5.9917,5.9952,5.9896,5.9954,5.995,5.9942,5.9627,5.9605,6.0001,6.0001,6.0001,6.0,6.0,6.0,6.0429,6.0503,6.0438,6.0493,6.0443,6.0469,6.0457,6.0435,6.04,6.0425,6.0427,6.0367,6.0305,6.0292,6.0291,6.0263,6.0268,6.0347,6.0301,6.0008,5.9963,5.992,5.9898,6.0349,6.035,6.0614,6.0616,6.0618]},{"header":{"parameterUnit":"m.s-1","parameterCategory":1,"la1":30.2991,"la2":30.254,"lo1":-89.0895,"lo2":-89.0444,"dy":0.0017,"dx":0.0017,"nx":28,"ny":28,"refTime":"2025-03-10T03:00:00:Z","depth":0,"parameterNumber":3,"parameterNumberName":"V-component_of_WINDS"},"data":[0,0,0,0,0,0,0,0,0,0,0,0,0,0,0,0,0,0,0,0,0,0,0,0,0,0,0,0,0,0,0,0,0,0,0,0,0,0,0,0,0,0,0,0,0,0,0,0,0,0,0,0,0,0,0,0,0,0,-1.2046,-1.2042,0,-1.1647,-1.1642,-1.1638,-1.146,-1.1461,-1.1461,-1.1462,-1.1047,-1.1036,-1.1024,0,0,0,0,0,0,0,0,0,0,0,0,0,-1.2648,-1.2638,-1.2046,-1.2041,-1.2036,-1.1648,-1.1642,-1.1637,-1.146,-1.1461,-1.1461,-1.1462,-1.1051,-1.1037,-1.1023,0,0,0,0,0,0,0,0,0,0,0,0,0,-1.2332,-1.2635,-1.2047,-1.1902,-1.1885,-1.1649,-1.1642,-1.1635,-1.146,-1.1461,-1.1462,-1.1462,-1.1055,-1.1038,-1.1021,-1.0899,0,0,-1.0968,-1.0961,0,0,0,0,0,0,0,0,-1.235,-1.231,-1.1928,-1.1911,-1.1892,-1.1604,-1.1702,-1.1388,-1.146,-1.1621,-1.1462,-1.1463,-1.1231,-1.12,-1.1123,-1.0879,-1.0861,-1.0967,-1.0956,-1.0949,-1.0944,0,0,0,0,0,0,0,-1.2372,-1.2326,-1.1888,-1.1923,-1.19,-1.1854,-1.181,-1.1642,-1.1426,-1.1607,-1.1593,-1.1549,-1.1221,-1.114,-1.1112,-1.0855,-1.0967,-1.0952,-1.0941,-1.0934,-1.049,-1.0488,0,0,0,0,0,0,-1.2419,-1.2346,-1.1901,-1.1876,-1.2128,-1.1842,-1.1793,-1.1696,-1.1428,-1.1388,-1.1549,-1.1542,-1.1169,-1.1132,-1.1096,-1.0934,-1.0949,-1.0933,-1.0923,-1.0491,-1.0489,-1.0488,0,0,0,0,0,0,-1.2433,-1.2381,-1.1917,-1.2107,-1.2044,-1.1831,-1.1723,-1.1687,-1.1606,-1.1384,-1.1344,-1.1505,-1.1168,-1.1121,-1.0949,-1.0917,-1.0925,-1.0909,-1.0493,-1.049,-1.0488,-1.061,0,0,0,0,0,0,-1.2451,-1.2387,-1.234,-1.2107,-1.2035,-1.1779,-1.1721,-1.1679,-1.1577,-1.1565,-1.1332,-1.1294,-1.1165,-1.0976,-1.0932,-1.0894,-1.0896,-1.0495,-1.0492,-1.0489,-1.0608,-1.0613,-1.0617,0,0,0,0,0,-1.2473,-1.2389,-1.2338,-1.2286,-1.1972,-1.1777,-1.1735,-1.159,-1.1575,-1.1525,-1.1382,-1.1302,-1.0929,-1.096,-1.0909,-1.0865,-1.0496,-1.0493,-1.0489,-1.0606,-1.0612,-1.0616,0,0,0,0,0,0,-1.262,-1.2356,-1.2297,-1.2135,-1.1981,-1.1748,-1.168,-1.1601,-1.1445,-1.144,-1.1264,-1.1213,-1.1057,-1.0943,-1.0983,-1.0732,-1.0705,-1.0692,-1.0812,-1.0815,-1.0819,-1.0849,-1.0881,0,0,0,0,0,-1.2635,-1.2501,-1.2276,-1.2155,-1.2081,-1.1895,-1.1804,-1.1706,-1.1537,-1.147,-1.1315,-1.1153,-1.0998,-1.09,-1.0746,-1.0591,-1.0537,-1.0536,-1.054,-1.0545,-1.0535,-1.0443,-1.044,-1.0477,-1.0477,-1.0477,0,0,-1.2662,-1.2501,-1.2426,-1.2181,-1.2049,-1.1913,-1.184,-1.1699,-1.1595,-1.1447,-1.1277,-1.1158,-1.0964,-1.0801,-1.0721,-1.0702,-1.0512,-1.054,-1.0546,-1.0532,-1.044,-1.0436,-1.0433,-1.0475,-1.0475,-1.0476,0,0,-1.2641,-1.2507,-1.2391,-1.2261,-1.2064,-1.1941,-1.1914,-1.1692,-1.1608,-1.1434,-1.1321,-1.1194,-1.0932,-1.0799,-1.0698,-1.0628,-1.0548,-1.0583,-1.0604,-1.0517,-1.0514,-1.0511,-1.0485,-1.0478,-1.0574,-1.0574,-1.0574,0,-1.2699,-1.2491,-1.2341,-1.2206,-1.2101,-1.1964,-1.1844,-1.1725,-1.1487,-1.1416,-1.1398,-1.1067,-1.0928,-1.0731,-1.0714,-1.0637,-1.0598,-1.0608,-1.0527,-1.0522,-1.0516,-1.049,-1.0481,-1.0579,-1.0579,-1.0578,-1.0578,0,-1.2572,-1.2429,-1.2359,-1.2135,-1.2022,-1.1896,-1.1724,-1.1627,-1.1539,-1.1417,-1.1241,-1.1069,-1.0878,-1.0824,-1.0736,-1.0614,-1.0608,-1.0562,-1.0531,-1.0521,-1.0493,-1.0482,-1.0587,-1.0585,-1.0584,-1.0582,0,0,-1.2631,-1.2328,-1.2304,-1.2201,-1.1974,-1.1859,-1.1726,-1.1541,-1.1461,-1.1301,-1.1184,-1.0966,-1.0921,-1.0806,-1.0701,-1.0626,-1.0581,-1.0587,-1.058,-1.0591,-1.0435,-1.0472,-1.0462,-1.0527,-1.0524,-1.0522,-1.0451,0,-1.2579,-1.2337,-1.2199,-1.2013,-1.1878,-1.1747,-1.163,-1.1477,-1.136,-1.1227,-1.1096,-1.0945,-1.0897,-1.0827,-1.0746,-1.0604,-1.0547,-1.0607,-1.0414,-1.0409,-1.0466,-1.0447,-1.0485,-1.0426,-1.0439,-1.0437,-1.0436,0,-1.2486,-1.2332,-1.2134,-1.1922,-1.186,-1.1758,-1.1577,-1.1453,-1.1276,-1.1196,-1.1068,-1.0964,-1.0816,-1.0799,-1.0592,-1.0636,-1.0549,-1.0467,-1.0461,-1.0436,-1.0421,-1.0422,-1.0404,-1.0395,-1.0417,-1.0418,-1.042,0,-1.2549,-1.2291,-1.2139,-1.2055,-1.1804,-1.1736,-1.1627,-1.1451,-1.1349,-1.119,-1.1122,-1.0948,-1.0852,-1.0719,-1.057,-1.0571,-1.0377,-1.0347,-1.0305,-1.0309,-1.0269,-1.0273,-1.0236,-1.0215,-1.0215,-1.0215,-1.0216,0,-1.2504,-1.2388,-1.2164,-1.2071,-1.1936,-1.1777,-1.1647,-1.1528,-1.1373,-1.1252,-1.1127,-1.1016,-1.0826,-1.0691,-1.0574,-1.042,-1.0377,-1.0307,-1.0277,-1.0317,-1.0327,-1.0257,-1.0257,-1.0213,-1.0213,-1.0214,-1.0214,0,-1.2551,-1.2397,-1.2223,-1.2001,-1.1942,-1.1852,-1.166,-1.1563,-1.1441,-1.1289,-1.1245,-1.105,-1.0885,-1.0724,-1.0501,-1.0422,-1.0269,-1.0229,-1.0329,-1.0312,-1.0279,-1.0284,-1.0195,-1.0174,-1.017,-1.017,-1.017,0,-1.2533,-1.2441,-1.2209,-1.2121,-1.2017,-1.1875,-1.1771,-1.161,-1.1506,-1.1298,-1.1226,-1.1052,-1.0904,-1.0646,-1.0484,-1.0312,-1.0267,-1.0248,-1.024,-1.0284,-1.0265,-1.0273,-1.0262,-1.0252,-1.0253,-1.0254,-1.0254,0,-1.2516,-1.2445,-1.23,-1.213,-1.201,-1.1866,-1.1719,-1.1653,-1.1463,-1.1353,-1.1183,-1.1069,-1.0843,-1.0671,-1.0481,-1.0367,-1.0278,-1.0258,-1.0239,-1.0279,-1.0341,-1.0306,-1.034,-1.026,-1.026,-1.0259,-1.0259,-1.0259,-1.2528,-1.244,-1.2264,-1.2107,-1.198,-1.1846,-1.1744,-1.1609,-1.1466,-1.1271,-1.1184,-1.1013,-1.0837,-1.0574,-1.0461,-1.0324,-1.0301,-1.0274,-1.0267,-1.0262,-1.0271,-1.0364,-1.0289,-1.0288,-1.0288,-1.0287,-1.0287,0,-1.2504,-1.2385,-1.2243,-1.2041,-1.1918,-1.1849,-1.1681,-1.1582,-1.1434,-1.1279,-1.1137,-1.0942,-1.0775,-1.06,-1.0423,-1.0346,-1.0301,-1.0305,-1.0308,-1.0283,-1.0301,-1.0335,-1.0344,-1.0344,-1.0344,-1.0344,-1.0344,-1.0345,-1.2477,-1.2324,-1.2232,-1.2015,-1.1894,-1.1729,-1.1639,-1.1513,-1.1389,-1.1178,-1.1039,-1.0928,-1.0763,-1.0573,-1.0416,-1.0369,-1.0309,-1.0324,-1.0265,-1.0286,-1.0282,-1.0278,-1.0309,-1.0313,-1.0313,-1.0258,-1.0257,-1.0257]}]]